Вернуться в каталог

SL-8 R/B

АктивенLEO
NORAD 13028·ROCKET BODY·🇷🇺 Russia

Запущен Jan 7, 1982 с Plesetsk Cosmodrome

Loading…

Ближайшие Пролёты (ближайшие 24 часа)

TLE

СвежийSource: Space-Track

Эпоха: Sep 14, 2026, 19:46 UTC

1 13028U 82001B   26257.82421387  .00000143  00000-0  53727-4 0  9998
2 13028  74.0386 283.7805 0020416 253.1990 106.6926 14.39954716342490

Отслеживайте SL-8 R/B в реальном времени с AllMySat

Download on the App Store